www.pogodaiklimat.ru

Погода и климат >> Архив погоды >> Мексика >> Empalme


ПОГОДА в Empalme

  • Прогноз погоды в Empalme
  • Монитор погоды в Empalme
  • Климат города

АРХИВ ПОГОДЫ в Empalme

Время (UTC), дата Ветер
(напр.,м/с)
 
Видим.   Явления Облачность Т
(С)
Тd
(С)
f
(%)
Тe
(С)
Тes
(С)
Комфортность P
(гПа)
Po
(гПа)
Тmin
(С)
Tmax
(С)
R
(мм)
R24
(мм)
S
(см)
12 12.12 штиль 0 10 км 10/0 2000 м
[Ac As]
+15.3 +13.5 89 +15 +15 1016.9 1015.5 +15.0 +24.6
15 12.12 С 2 30 км 10/0
[Ac As]
+17.4 +13.4 77 +18 +18 1017.3 1015.9
18 12.12 С 2 30 км 10/0
[Ac As]
+16.5 +14.0 85 +17 +19 1018.6 1017.2 +14.6 +18.6
21 12.12 ЮЗ 5 30 км 1/0
[Ac trans]
+25.4 +14.2 50 +28 +31 жарко 1015.8 1014.4
00 13.12 С 1 30 км ясно +23.0 +13.7 56 +26 +27 жарко 1016.8 1015.4 +14.6 +36.0
12 13.12 штиль 0 10 км ясно +14.6 +10.8 78 +14 +14 1018.8 1017.3 +13.5 +26.0
15 13.12 штиль 0 30 км ясно +11.8 +8.5 80 +11 +12 1021.2 1019.8
18 13.12 С 3 30 км ясно +20.4 +8.8 47 +22 +28 комфорт 1022.2 1020.8 +11.8 +21.6
21 13.12 З 4 30 км ясно +25.0 +10.3 40 +26 +31 жарко 1019.9 1018.5
00 14.12 штиль 0 30 км ясно +25.4 +6.7 30 +25 +26 комфорт 1018.3 1017.0 +11.8 +26.5
03 14.12 штиль 0 10 км ясно +20.8 +4.4 34 +21 +21 комфорт 1018.7 1017.2
12 14.12 штиль 0 10 км ясно +16.0 +7.0 55 +16 +16 1019.6 1018.1 +14.5 +26.5
15 14.12 СВ 2 30 км 10/0
[Cs]
+18.2 +6.7 47 +19 +19 1020.5 1019.1
18 14.12 СВ 5 30 км 10/0
[Cs]
+22.2 +2.7 28 +22 +25 комфорт 1021.9 1020.5 +14.5 +23.0
21 14.12 С 2 30 км 10/0
[Cs]
+27.5 -0.0 17 +25 +31 комфорт 1019.0 1017.6
00 15.12 З 1 30 км 4/0
[Cs]
+24.8 +9.0 37 +25 +26 комфорт 1018.0 1016.7 +14.5 +28.2
03 15.12 штиль 0 10 км 3/0
[Cs]
+21.2 +3.4 31 +21 +21 комфорт 1018.4 1017.0
12 15.12 С 1 10 км ясно +14.0 +9.5 74 +14 +14 1017.8 1015.7 +13.7 +28.2
15 15.12 С 2 30 км 8/0
[Cs]
+11.4 +2.1 53 +11 +11 1017.7 1016.2
18 15.12 С 3 30 км 8/0
[Cs]
+17.6 +1.7 34 +18 +23 1018.6 1016.8 +11.4 +18.9
21 15.12 З 3 30 км 8/0
[Ac trans]
+23.6 +3.6 27 +23 +26 комфорт 1016.8 1015.4
00 16.12 Ю 1 30 км 10/0 2000 м
[Ac As]
+21.4 +13.5 61 +24 +24 комфорт 1017.8 1016.4 +11.4 +24.3
03 16.12 СЗ 1 10 км 10/0 2000 м
[Ac As]
+17.8 +5.2 43 +19 +19 1018.3 1016.9
12 16.12 СЗ 1 10 км 10/0 2000 м
[Ac As]
+16.5 +9.4 63 +17 +17 1019.7 1018.3 +16.0 +24.3
15 16.12 СВ 4 30 км 10/0
[Ac As]
+15.5 +9.2 66 +15 +15 1020.1 1018.7
18 16.12 С 4 30 км 10/0
[Ac As]
+20.5 +10.0 51 +22 +24 комфорт 1020.4 1019.0 +15.0 +21.3
21 16.12 З 2 30 км 10/0
[Ac trans]
+24.0 +10.5 43 +25 +28 комфорт 1019.5 1018.1
00 17.12 штиль 0 30 км 8/0 2000 м
[Ac As]
+22.2 +15.3 65 +26 +26 душно 1017.4 1018.0 +15.0 +24.7
03 17.12 штиль 0 10 км ясно +16.3 +12.7 79 +16 +16 1021.3 1011.9
12 17.12 штиль 0 10 км ясно +12.0 +9.1 82 +11 +11 1019.8 1018.3 +11.3 +24.7
15 17.12 штиль 0 30 км ясно +11.6 +9.0 84 +11 +12 1021.5 1020.0
18 17.12 штиль 0 30 км ясно +22.2 +13.1 56 +25 +35 комфорт 1022.1 1020.7 +10.4 +22.6
21 17.12 ЮЗ 2 30 км ясно +25.2 +14.2 50 +28 +34 жарко 1019.1 1017.7
00 18.12 штиль 0 30 км ясно +22.1 +15.9 68 +26 +26 душно 1018.4 1017.0 +10.4 +26.7
03 18.12 штиль 0 10 км ясно +17.4 +10.1 62 +17 +17 1019.0 1017.6
12 18.12 штиль 0 10 км ясно +11.8 +10.0 89 +11 +11 1018.7 1017.2 +11.1 +26.7
15 18.12 штиль 0 30 км ясно +11.2 +7.0 75 +11 +11 1019.6 1018.2
18 18.12 В 2 30 км 1/0
[Ci fib]
+20.5 +6.8 41 +22 +29 комфорт 1020.2 1018.8 +9.7 +21.1
21 18.12 Ю 2 30 км ясно +25.2 +5.2 28 +25 +32 комфорт 1017.3 1015.9
00 19.12 штиль 0 30 км ясно +23.6 +11.7 47 +25 +26 комфорт 1016.3 1015.0 +9.7 +26.7
03 19.12 штиль 0 10 км ясно +19.8 +5.1 38 +20 +20 1016.7 1015.3

 

Местоположение метеостанции Empalme (Мексика): широта 27.95 долгота -110.70 высота над уровнем моря 12 м.

В архиве по умолчанию представлена погода в Empalme за последнюю неделю. Архивные данные за месяц целиком и за предыдущие месяцы, начиная с января 2011 года, Вы можете получить, выбрав интересующий диапазон дат из раскрывающегося списка и нажав кнопку "Ввод!".


*Определитесь, кто Вы:
робот инопланетянин человек

Внимание! Время в таблицах - всемирное. Для получения местного времени необходимо прибавить поправку, которая в Empalme равна -7 ч.

Смотрите также архив погоды в соседних городах и на ближайших метеорологических станциях:

Погода в Guaymas (Мексика) (18 км)
Погода в Ciudad Obregon (Мексика) (106 км)
Погода в Hermosillo la Magna (Мексика) (128 км)
Погода в Hermosillo (Мексика) (131 км)
Погода в Santa Rosalia (Мексика) (170 км)
Погода в Loreto (Мексика) (223 км)
Погода в Choix (Мексика) (282 км)
Погода в Pilares de Nacoz (Мексика) (287 км)
Погода в Temosachic (Мексика) (305 км)
Погода в Altar Son (Мексика) (326 км)

Пояснения к столбцам:

Ветер - указаны скорость ветра в м/с - средняя за 10 мин, порывы в срок и между сроками (в фигурных скобках) и направление, откуда дует ветер: С - северный, СВ - северо-восточный, В - восточный, ЮВ - юго-восточный, Ю - южный, ЮЗ - юго-западный, З - западный, СЗ - северо-западный.
Видимость - горизонтальная дальность видимости в метрах или километрах. При видимости от 1 до 10 км при отсутствии осадков обычно наблюдается дымка, при ухудшении видимости до 1 км и менее - туман. В сухую погоду видимость может ухудшаться дымом, пылью или мглою.
Явления - указаны атмосферные явления, наблюдавшиеся в срок или в последний час перед сроком; фигурными скобками обозначены явления, наблюдавшиеся между сроками (за 1-3 часа до срока); квадратными скобками обозначены град или гололедные отложения с указанием их диаметра в мм.
Облачность - указаны через наклонную черту общая и нижняя облачность в баллах и высота нижней границы облаков в метрах; квадратными скобками обозначены формы облаков: Ci - перистые, Cs - перисто-слоистые, Cc - перисто-кучевые, Ac - высококучевые, As - высокослоистые, Sc - слоисто-кучевые, Ns - слоисто-дождевые, Cu - кучевые, Cb - кучево-дождевые. Подробнее классификацию облаков см. в Атласе облаков (PDF).
T - Температура воздуха - температура, измеренная на высоте 2 м над землей.
Td - Температура точки росы - температура, при понижении до которой содержащийся в воздухе водяной пар достигнет насыщения.
f - Относительная влажность воздуха - влажноcть воздуха, измеренная на высоте 2 м над землей.
Te - Эффективная температура - температура, которую ощущает одетый по сезону человек в тени. Характеристика душности погоды. При расчете учитывается влияние влажности воздуха и скорости ветра на теплоощущения человека.
Tes - Эффективная температура на солнце - температура, которую ощущает человек, с поправкой на солнечный нагрев. Характеристика знойности погоды. Зависит от высоты солнца над горизонтом, облачности и скорости ветра. Ночью, в пасмурную погоду, а также при ветре 12 м/с и более поправка равна нулю.
P - Атмосферное давление - приведенное к уровню моря атмосферное давление.
Po - Атмосферное давление - измеренное на уровне метеостанции атмосферное давление.
Tmin - Минимальная температура - минимум температуры воздуха на высоте 2 м над землей.
Tmax - Максимальная температура - максимум температуры воздуха на высоте 2 м над землей.
R - Количество осадков - Количество выпавших осадков за период времени, мм. При наведении курсора мыши на число - период времени, за который выпало указанное количество осадков.
R24 - Количество осадков - Количество выпавших осадков за 24 часа, мм.
S - Снежный покров - Высота снежного покрова, см. При наведении курсора мыши на число - состояние снежного покрова и степень покрытия местности в баллах.